Home   Weather   Schleswig   Past weeks

Flag for Germany Past Weather in Schleswig, Schleswig-Holstein, Germany — Yesterday and Last 2 Weeks

Now
41 °F

Broken clouds.


Feels Like: 32 °F
Forecast: 36 / 45 °F
Wind: 20 mph from Southwest

Location: Schleswig-Jagel

Current Time: Feb 28, 2017 at 9:00:03 am

Latest Report: Feb 28, 2017 at 8:20 am


Visibility: N/A

Pressure: 29.12 "Hg

Humidity: 76%

Dew Point: 34 °F

Location of SchleswigLocation

Past Weather in Schleswig — Graph

°F

Schleswig Temperature Yesterday

Maximum temperature yesterday: 52 °F (at 2:20 pm)
Minimum temperature yesterday: 48 °F (at 12:20 am)
Average temperature yesterday: 49 °F

High & Low Weather Summary for the Past Weeks

 TemperatureHumidityPressure
High52 °F (Feb 27, 2:20 pm)100% (Feb 13, 10:20 pm)30.66 "Hg (Feb 13, 10:20 pm)
Low21 °F (Feb 15, 2:20 am)53% (Feb 24, 1:20 pm)28.88 "Hg (Feb 23, 8:20 pm)
Average39 °F89%29.90 "Hg
* Reported Feb 13 7:20 am — Feb 28 7:20 am, Schleswig, Weather by CustomWeather, © 2017

Note: Actual official high and low records may vary slightly from our data, if they occured in-between our weather recording intervals... More about our weather records

Advertising

Schleswig Weather History for the Previous 24 Hours

Scroll right to see more
 ConditionsComfort  
Time TempWeatherWind HumidityBarometerVisibility
7:20 am
Tue, Feb 28
41 °FPartly sunny.21 mph76%29.09 "HgN/A
6:20 am41 °FPassing clouds.14 mph81%29.09 "HgN/A
5:20 am41 °FQuite cool.14 mph81%29.09 "HgN/A
4:20 am41 °FQuite cool.13 mph81%29.09 "HgN/A
3:20 am43 °FQuite cool.17 mph81%29.09 "HgN/A
2:20 am45 °FQuite cool.17 mph76%29.09 "HgN/A
1:20 am43 °FQuite cool.17 mph81%29.09 "HgN/A
12:20 am43 °FQuite cool.28 mph81%29.12 "Hg1 mi
11:20 pm
Mon, Feb 27
48 °FCool.14 mph76%29.12 "HgN/A
10:20 pm50 °FCool.21 mph67%29.15 "HgN/A
9:20 pm50 °FCool.17 mph71%29.15 "HgN/A
8:20 pm50 °FCool.21 mph67%29.18 "HgN/A
7:20 pm50 °FCool.18 mph71%29.21 "HgN/A
6:20 pm50 °FCool.17 mph71%29.27 "HgN/A
5:20 pm52 °FCool.18 mph67%29.30 "HgN/A
4:20 pm50 °FBroken clouds.14 mph71%29.33 "HgN/A
3:20 pm50 °FBroken clouds.13 mph76%29.39 "HgN/A
2:20 pm52 °FPartly sunny.15 mph72%29.42 "HgN/A
1:20 pm50 °FBroken clouds.15 mph76%29.45 "HgN/A
12:20 pm50 °FPartly sunny.14 mph76%29.47 "HgN/A
11:20 am48 °FBroken clouds.13 mph82%29.50 "HgN/A
10:20 am48 °FPartly sunny.13 mph87%29.53 "HgN/A
9:47 am48 °FBroken clouds.14 mph87%29.53 "HgN/A
9:20 am48 °FPartly sunny.14 mph87%29.53 "HgN/A
Weather by CustomWeather, © 2017

See weather overviewHow to use our weather pages